Year,Month,Day,Hour,Minute,Value (Times are PST for windspeed in km/hr)
2010,04,02,00,00,19.10
2010,04,02,00,01,14.60
2010,04,02,00,02,11.80
2010,04,02,00,03,15.90
2010,04,02,00,04,15.30
2010,04,02,00,05,16.20
2010,04,02,00,06,14.20
2010,04,02,00,07,15.90
2010,04,02,00,08,25.10
2010,04,02,00,09,17.40
2010,04,02,00,10,17.90
2010,04,02,00,11,21.20
2010,04,02,00,12,16.90
2010,04,02,00,13,14.00
2010,04,02,00,14,21.40
2010,04,02,00,15,19.50
2010,04,02,00,16,18.10
2010,04,02,00,17,14.80
2010,04,02,00,18,13.10
2010,04,02,00,19,9.30
2010,04,02,00,20,11.80
2010,04,02,00,21,16.20
2010,04,02,00,22,14.30
2010,04,02,00,23,16.10
2010,04,02,00,24,16.30
2010,04,02,00,25,10.60
2010,04,02,00,26,12.00
2010,04,02,00,27,13.70
2010,04,02,00,28,11.30
2010,04,02,00,29,18.00
2010,04,02,00,30,23.40
2010,04,02,00,31,15.20
2010,04,02,00,32,16.00
2010,04,02,00,33,14.80
2010,04,02,00,34,20.00
2010,04,02,00,35,14.20
2010,04,02,00,36,13.60
2010,04,02,00,37,22.20
2010,04,02,00,38,16.40
2010,04,02,00,39,14.30
2010,04,02,00,40,14.90
2010,04,02,00,41,21.60
2010,04,02,00,42,14.20
2010,04,02,00,43,17.20
2010,04,02,00,44,20.50
2010,04,02,00,45,14.70
2010,04,02,00,46,15.60
2010,04,02,00,47,13.00
2010,04,02,00,48,24.80
2010,04,02,00,49,19.80
2010,04,02,00,50,13.20
2010,04,02,00,51,19.10
2010,04,02,00,52,13.00
2010,04,02,00,53,15.50
2010,04,02,00,54,20.10
2010,04,02,00,55,23.70
2010,04,02,00,56,15.30
2010,04,02,00,57,10.80
2010,04,02,00,58,18.30
2010,04,02,00,59,14.90
2010,04,02,01,00,18.10
2010,04,02,01,01,20.60
2010,04,02,01,02,19.00
2010,04,02,01,03,23.60
2010,04,02,01,04,17.30
2010,04,02,01,05,19.10
2010,04,02,01,06,20.80
2010,04,02,01,07,16.20
2010,04,02,01,08,23.40
2010,04,02,01,09,19.30
2010,04,02,01,10,14.00
2010,04,02,01,11,17.60
2010,04,02,01,12,19.60
2010,04,02,01,13,18.60
2010,04,02,01,14,21.70
2010,04,02,01,15,19.60
2010,04,02,01,16,24.50
2010,04,02,01,17,26.20
2010,04,02,01,18,21.50
2010,04,02,01,19,14.90
2010,04,02,01,20,21.20
2010,04,02,01,21,22.50
2010,04,02,01,22,22.00
2010,04,02,01,23,23.20
2010,04,02,01,24,16.10
2010,04,02,01,25,23.00
2010,04,02,01,26,18.10
2010,04,02,01,27,13.80
2010,04,02,01,28,20.20
2010,04,02,01,29,16.90
2010,04,02,01,30,17.90
2010,04,02,01,31,22.00
2010,04,02,01,32,20.60
2010,04,02,01,33,11.40
2010,04,02,01,34,11.80
2010,04,02,01,35,20.10
2010,04,02,01,36,19.90
2010,04,02,01,37,20.30
2010,04,02,01,38,17.30
2010,04,02,01,39,18.10
2010,04,02,01,40,19.90
2010,04,02,01,41,22.30
2010,04,02,01,42,17.60
2010,04,02,01,43,24.70
2010,04,02,01,44,25.90
2010,04,02,01,45,19.00
2010,04,02,01,46,22.10
2010,04,02,01,47,23.10
2010,04,02,01,48,25.90
2010,04,02,01,49,21.20
2010,04,02,01,50,20.10
2010,04,02,01,51,20.50
2010,04,02,01,52,25.40
2010,04,02,01,53,21.00
2010,04,02,01,54,20.60
2010,04,02,01,55,22.70
2010,04,02,01,56,21.10
2010,04,02,01,57,19.30
2010,04,02,01,58,22.00
2010,04,02,01,59,16.90
2010,04,02,02,00,30.90
2010,04,02,02,01,24.40
2010,04,02,02,02,20.50
2010,04,02,02,03,35.70
2010,04,02,02,04,24.60
2010,04,02,02,05,20.70
2010,04,02,02,06,18.20
2010,04,02,02,07,28.50
2010,04,02,02,08,25.70
2010,04,02,02,09,18.60
2010,04,02,02,10,19.20
2010,04,02,02,11,16.70
2010,04,02,02,12,19.50
2010,04,02,02,13,14.80
2010,04,02,02,14,11.20
2010,04,02,02,15,20.70
2010,04,02,02,16,21.20
2010,04,02,02,17,18.40
2010,04,02,02,18,13.10
2010,04,02,02,19,24.40
2010,04,02,02,20,22.90
2010,04,02,02,21,25.30
2010,04,02,02,22,23.30
2010,04,02,02,23,23.40
2010,04,02,02,24,22.10
2010,04,02,02,25,22.40
2010,04,02,02,26,15.60
2010,04,02,02,27,14.60
2010,04,02,02,28,18.90
2010,04,02,02,29,18.10
2010,04,02,02,30,21.60
2010,04,02,02,31,20.80
2010,04,02,02,32,14.80
2010,04,02,02,33,23.70
2010,04,02,02,34,21.10
2010,04,02,02,35,19.20
2010,04,02,02,36,18.60
2010,04,02,02,37,20.00
2010,04,02,02,38,20.40
2010,04,02,02,39,13.40
2010,04,02,02,40,17.10
2010,04,02,02,41,25.90
2010,04,02,02,42,20.70
2010,04,02,02,43,22.60
2010,04,02,02,44,18.20
2010,04,02,02,45,20.40
2010,04,02,02,46,11.60
2010,04,02,02,47,21.80
2010,04,02,02,48,15.50
2010,04,02,02,49,15.60
2010,04,02,02,50,16.60
2010,04,02,02,51,11.20
2010,04,02,02,52,18.40
2010,04,02,02,53,18.50
2010,04,02,02,54,20.20
2010,04,02,02,55,17.50
2010,04,02,02,56,18.40
2010,04,02,02,57,9.70
2010,04,02,02,58,11.20
2010,04,02,02,59,21.50
2010,04,02,03,00,21.50
2010,04,02,03,01,22.40
2010,04,02,03,02,13.90
2010,04,02,03,03,15.00
2010,04,02,03,04,13.40
2010,04,02,03,05,9.00
2010,04,02,03,06,15.70
2010,04,02,03,07,18.40
2010,04,02,03,08,15.00
2010,04,02,03,09,14.60
2010,04,02,03,10,17.60
2010,04,02,03,11,12.50
2010,04,02,03,12,15.40
2010,04,02,03,13,12.30
2010,04,02,03,14,8.40
2010,04,02,03,15,13.90
2010,04,02,03,16,9.90
2010,04,02,03,17,8.60
2010,04,02,03,18,16.10
2010,04,02,03,19,17.40
2010,04,02,03,20,17.00
2010,04,02,03,21,9.70
2010,04,02,03,22,14.80
2010,04,02,03,23,9.60
2010,04,02,03,24,3.70
2010,04,02,03,25,15.90
2010,04,02,03,26,18.10
2010,04,02,03,27,16.30
2010,04,02,03,28,12.00
2010,04,02,03,29,13.00
2010,04,02,03,30,13.00
2010,04,02,03,31,8.80
2010,04,02,03,32,8.30
2010,04,02,03,33,9.90
2010,04,02,03,34,13.80
2010,04,02,03,35,7.80
2010,04,02,03,36,2.10
2010,04,02,03,37,13.70
2010,04,02,03,38,10.10
2010,04,02,03,39,8.00
2010,04,02,03,40,8.80
2010,04,02,03,41,7.00
2010,04,02,03,42,8.90
2010,04,02,03,43,8.00
2010,04,02,03,44,4.30
2010,04,02,03,45,0.70
2010,04,02,03,46,1.00
2010,04,02,03,47,0.20
2010,04,02,03,48,1.30
2010,04,02,03,49,0.10
2010,04,02,03,50,1.20
2010,04,02,03,51,0.60
2010,04,02,03,52,2.20
2010,04,02,03,53,2.80
2010,04,02,03,54,0.00
2010,04,02,03,55,0.80
2010,04,02,03,56,1.20
2010,04,02,03,57,6.40
2010,04,02,03,58,0.90
2010,04,02,03,59,0.00
2010,04,02,04,00,0.10
2010,04,02,04,01,0.00
2010,04,02,04,02,0.20
2010,04,02,04,03,0.10
2010,04,02,04,04,2.20
2010,04,02,04,05,2.90
2010,04,02,04,06,3.80
2010,04,02,04,07,1.10
2010,04,02,04,08,0.10
2010,04,02,04,09,0.30
2010,04,02,04,10,1.80
2010,04,02,04,11,1.90
2010,04,02,04,12,2.80
2010,04,02,04,13,4.00
2010,04,02,04,14,4.00
2010,04,02,04,15,5.30
2010,04,02,04,16,5.40
2010,04,02,04,17,4.30
2010,04,02,04,18,6.30
2010,04,02,04,19,2.40
2010,04,02,04,20,5.20
2010,04,02,04,21,6.70
2010,04,02,04,22,7.20
2010,04,02,04,23,7.80
2010,04,02,04,24,2.60
2010,04,02,04,25,7.80
2010,04,02,04,26,5.50
2010,04,02,04,27,5.20
2010,04,02,04,28,5.60
2010,04,02,04,29,3.10
2010,04,02,04,30,3.30
2010,04,02,04,31,0.80
2010,04,02,04,32,3.40
2010,04,02,04,33,3.40
2010,04,02,04,34,2.60
2010,04,02,04,35,4.10
2010,04,02,04,36,3.70
2010,04,02,04,37,0.60
2010,04,02,04,38,0.00
2010,04,02,04,39,3.20
2010,04,02,04,40,4.00
2010,04,02,04,41,10.10
2010,04,02,04,42,9.70
2010,04,02,04,43,18.60
2010,04,02,04,44,11.70
2010,04,02,04,45,15.30
2010,04,02,04,46,25.30
2010,04,02,04,47,24.20
2010,04,02,04,48,25.70
2010,04,02,04,49,30.60
2010,04,02,04,50,25.40
2010,04,02,04,51,25.40
2010,04,02,04,52,25.20
2010,04,02,04,53,27.30
2010,04,02,04,54,19.80
2010,04,02,04,55,20.90
2010,04,02,04,56,23.00
2010,04,02,04,57,32.50
2010,04,02,04,58,23.70
2010,04,02,04,59,22.80
2010,04,02,05,00,24.40
2010,04,02,05,01,30.20
2010,04,02,05,02,28.40
2010,04,02,05,03,28.60
2010,04,02,05,04,23.70
2010,04,02,05,05,23.90
2010,04,02,05,06,27.40
2010,04,02,05,07,23.10
2010,04,02,05,08,20.20
2010,04,02,05,09,22.80
2010,04,02,05,10,21.80
2010,04,02,05,11,26.70
2010,04,02,05,12,25.40
2010,04,02,05,13,24.10
2010,04,02,05,14,22.40
2010,04,02,05,15,31.30
2010,04,02,05,16,32.40
2010,04,02,05,17,33.40
2010,04,02,05,18,30.50
2010,04,02,05,19,21.40
2010,04,02,05,20,28.00
2010,04,02,05,21,30.90
2010,04,02,05,22,24.60
2010,04,02,05,23,19.20
2010,04,02,05,24,17.20
2010,04,02,05,25,19.60
2010,04,02,05,26,22.10
2010,04,02,05,27,23.00
2010,04,02,05,28,22.30
2010,04,02,05,29,20.50
2010,04,02,05,30,28.00
2010,04,02,05,31,28.10
2010,04,02,05,32,23.40
2010,04,02,05,33,22.80
2010,04,02,05,34,27.60
2010,04,02,05,35,29.00
2010,04,02,05,36,30.30
2010,04,02,05,37,23.00
2010,04,02,05,38,19.60
2010,04,02,05,39,26.90
2010,04,02,05,40,26.00
2010,04,02,05,41,26.80
2010,04,02,05,42,27.50
2010,04,02,05,43,20.70
2010,04,02,05,44,19.30
2010,04,02,05,45,31.60
2010,04,02,05,46,21.70
2010,04,02,05,47,29.30
2010,04,02,05,48,25.60
2010,04,02,05,49,29.40
2010,04,02,05,50,18.60
2010,04,02,05,51,16.20
2010,04,02,05,52,25.70
2010,04,02,05,53,31.30
2010,04,02,05,54,31.80
2010,04,02,05,55,30.30
2010,04,02,05,56,32.90
2010,04,02,05,57,36.30
2010,04,02,05,58,34.20
2010,04,02,05,59,31.70
2010,04,02,06,00,22.30
2010,04,02,06,01,40.30
2010,04,02,06,02,33.30
2010,04,02,06,03,32.10
2010,04,02,06,04,31.70
2010,04,02,06,05,34.30
2010,04,02,06,06,29.40
2010,04,02,06,07,35.20
2010,04,02,06,08,31.00
2010,04,02,06,09,38.10
2010,04,02,06,10,34.50
2010,04,02,06,11,33.30
2010,04,02,06,12,33.30
2010,04,02,06,13,29.20
2010,04,02,06,14,30.90
2010,04,02,06,15,21.10
2010,04,02,06,16,34.80
2010,04,02,06,17,33.50
2010,04,02,06,18,29.90
2010,04,02,06,19,27.40
2010,04,02,06,20,39.10
2010,04,02,06,21,29.80
2010,04,02,06,22,38.40
2010,04,02,06,23,39.00
2010,04,02,06,24,33.90
2010,04,02,06,25,38.90
2010,04,02,06,26,41.30
2010,04,02,06,27,41.30
2010,04,02,06,28,38.70
2010,04,02,06,29,37.70
2010,04,02,06,30,37.70
2010,04,02,06,31,42.70
2010,04,02,06,32,37.00
2010,04,02,06,33,36.60
2010,04,02,06,34,39.70
2010,04,02,06,35,34.00
2010,04,02,06,36,40.20
2010,04,02,06,37,36.70
2010,04,02,06,38,45.60
2010,04,02,06,39,40.30
2010,04,02,06,40,40.40
2010,04,02,06,41,42.30
2010,04,02,06,42,42.60
2010,04,02,06,43,40.40
2010,04,02,06,44,31.70
2010,04,02,06,45,35.80
2010,04,02,06,46,35.30
2010,04,02,06,47,40.90
2010,04,02,06,48,28.40
2010,04,02,06,49,33.70
2010,04,02,06,50,31.20
2010,04,02,06,51,36.30
2010,04,02,06,52,36.90
2010,04,02,06,53,35.70
2010,04,02,06,54,24.60
2010,04,02,06,55,46.10
2010,04,02,06,56,43.90
2010,04,02,06,57,38.10
2010,04,02,06,58,37.10
2010,04,02,06,59,47.70
2010,04,02,07,00,35.70
2010,04,02,07,01,36.80
2010,04,02,07,02,44.00
2010,04,02,07,03,33.10
2010,04,02,07,04,39.90
2010,04,02,07,05,34.50
2010,04,02,07,06,39.70
2010,04,02,07,07,40.90
2010,04,02,07,08,38.50
2010,04,02,07,09,38.60
2010,04,02,07,10,36.20
2010,04,02,07,11,33.30
2010,04,02,07,12,45.30
2010,04,02,07,13,34.70
2010,04,02,07,14,37.50
2010,04,02,07,15,31.20
2010,04,02,07,16,33.60
2010,04,02,07,17,38.60
2010,04,02,07,18,23.60
2010,04,02,07,19,31.00
2010,04,02,07,20,26.40
2010,04,02,07,21,32.60
2010,04,02,07,22,45.20
2010,04,02,07,23,47.20
2010,04,02,07,24,35.00
2010,04,02,07,25,47.50
2010,04,02,07,26,38.20
2010,04,02,07,27,33.10
2010,04,02,07,28,34.30
2010,04,02,07,29,36.90
2010,04,02,07,30,39.10
2010,04,02,07,31,40.30
2010,04,02,07,32,32.90
2010,04,02,07,33,42.30
2010,04,02,07,34,39.10
2010,04,02,07,35,31.30
2010,04,02,07,36,50.40
2010,04,02,07,37,31.00
2010,04,02,07,38,25.50
2010,04,02,07,39,29.70
2010,04,02,07,40,35.70
2010,04,02,07,41,35.20
2010,04,02,07,42,29.00
2010,04,02,07,43,33.20
2010,04,02,07,44,44.20
2010,04,02,07,45,34.60
2010,04,02,07,46,29.80
2010,04,02,07,47,36.30
2010,04,02,07,48,32.90
2010,04,02,07,49,29.10
2010,04,02,07,50,43.40
2010,04,02,07,51,35.10
2010,04,02,07,52,39.00
2010,04,02,07,53,44.50
2010,04,02,07,54,38.40
2010,04,02,07,55,30.80
2010,04,02,07,56,24.60
2010,04,02,07,57,32.80
2010,04,02,07,58,26.50
2010,04,02,07,59,30.30
2010,04,02,08,00,33.80
2010,04,02,08,01,31.70
2010,04,02,08,02,31.70
2010,04,02,08,03,39.30
2010,04,02,08,04,37.20
2010,04,02,08,05,34.60
2010,04,02,08,06,29.20
2010,04,02,08,07,29.40
2010,04,02,08,08,31.40
2010,04,02,08,09,35.90
2010,04,02,08,10,40.40
2010,04,02,08,11,35.50
2010,04,02,08,12,22.30
2010,04,02,08,13,26.80
2010,04,02,08,14,25.80
2010,04,02,08,15,38.20
2010,04,02,08,16,30.90
2010,04,02,08,17,38.10
2010,04,02,08,18,36.00
2010,04,02,08,19,39.00
2010,04,02,08,20,37.40
2010,04,02,08,21,28.10
2010,04,02,08,22,36.60
2010,04,02,08,23,32.80
2010,04,02,08,24,33.90
2010,04,02,08,25,38.60
2010,04,02,08,26,36.10
2010,04,02,08,27,32.30
2010,04,02,08,28,37.70
2010,04,02,08,29,25.60
2010,04,02,08,30,22.20
2010,04,02,08,31,21.10
2010,04,02,08,32,27.10
2010,04,02,08,33,30.70
2010,04,02,08,34,27.00
2010,04,02,08,35,31.20
2010,04,02,08,36,32.70
2010,04,02,08,37,35.50
2010,04,02,08,38,26.50
2010,04,02,08,39,33.40
2010,04,02,08,40,28.20
2010,04,02,08,41,23.90
2010,04,02,08,42,32.70
2010,04,02,08,43,34.70
2010,04,02,08,44,31.70
2010,04,02,08,45,31.80
2010,04,02,08,46,25.80
2010,04,02,08,47,24.90
2010,04,02,08,48,20.00
2010,04,02,08,49,34.00
2010,04,02,08,50,30.50
2010,04,02,08,51,35.50
2010,04,02,08,52,36.70
2010,04,02,08,53,29.90
2010,04,02,08,54,31.90
2010,04,02,08,55,38.60
2010,04,02,08,56,43.80
2010,04,02,08,57,29.10
2010,04,02,08,58,32.30
2010,04,02,08,59,25.20
2010,04,02,09,00,22.40
2010,04,02,09,01,29.50
2010,04,02,09,02,38.70
2010,04,02,09,03,33.90
2010,04,02,09,04,30.60
2010,04,02,09,05,34.90
2010,04,02,09,06,28.60
2010,04,02,09,07,36.70
2010,04,02,09,08,39.00
2010,04,02,09,09,34.80
2010,04,02,09,10,34.10
2010,04,02,09,11,26.00
2010,04,02,09,12,41.70
2010,04,02,09,13,29.50
2010,04,02,09,14,36.30
2010,04,02,09,15,32.60
2010,04,02,09,16,24.50
2010,04,02,09,17,33.20
2010,04,02,09,18,16.00
2010,04,02,09,19,24.90
2010,04,02,09,20,30.10
2010,04,02,09,21,34.70
2010,04,02,09,22,27.70
2010,04,02,09,23,29.90
2010,04,02,09,24,32.30
2010,04,02,09,25,32.20
2010,04,02,09,26,27.80
2010,04,02,09,27,34.50
2010,04,02,09,28,26.30
2010,04,02,09,29,23.10
2010,04,02,09,30,27.70
2010,04,02,09,31,30.80
2010,04,02,09,32,32.30
2010,04,02,09,33,32.70
2010,04,02,09,34,26.90
2010,04,02,09,35,26.60
2010,04,02,09,36,24.00
2010,04,02,09,37,29.30
2010,04,02,09,38,31.90
2010,04,02,09,39,30.10
2010,04,02,09,40,29.30
2010,04,02,09,41,28.80
2010,04,02,09,42,36.70
2010,04,02,09,43,22.80
2010,04,02,09,44,39.00
2010,04,02,09,45,35.70
2010,04,02,09,46,40.10
2010,04,02,09,47,27.30
2010,04,02,09,48,43.70
2010,04,02,09,49,31.70
2010,04,02,09,50,31.60
2010,04,02,09,51,40.80
2010,04,02,09,52,38.60
2010,04,02,09,53,24.00
2010,04,02,09,54,33.70
2010,04,02,09,55,27.50
2010,04,02,09,56,33.50
2010,04,02,09,57,32.50
2010,04,02,09,58,40.10
2010,04,02,09,59,35.70
2010,04,02,10,00,31.00
2010,04,02,10,01,33.50
2010,04,02,10,02,31.00
2010,04,02,10,03,25.80
2010,04,02,10,04,28.90
2010,04,02,10,05,32.60
2010,04,02,10,06,25.30
2010,04,02,10,07,38.40
2010,04,02,10,08,38.30
2010,04,02,10,09,41.60
2010,04,02,10,10,34.80
2010,04,02,10,11,50.50
2010,04,02,10,12,45.80
2010,04,02,10,13,43.70
2010,04,02,10,14,29.50
2010,04,02,10,15,31.50
2010,04,02,10,16,34.10
2010,04,02,10,17,30.70
2010,04,02,10,18,40.10
2010,04,02,10,19,35.20
2010,04,02,10,20,37.60
2010,04,02,10,21,35.10
2010,04,02,10,22,38.30
2010,04,02,10,23,34.70
2010,04,02,10,24,43.80
2010,04,02,10,25,42.50
2010,04,02,10,26,33.70
2010,04,02,10,27,40.40
2010,04,02,10,28,52.10
2010,04,02,10,29,33.10
2010,04,02,10,30,34.40
2010,04,02,10,31,31.60
2010,04,02,10,32,39.70
2010,04,02,10,33,38.90
2010,04,02,10,34,39.70
2010,04,02,10,35,28.00
2010,04,02,10,36,31.20
2010,04,02,10,37,34.80
2010,04,02,10,38,47.50
2010,04,02,10,39,45.70
2010,04,02,10,40,40.00
2010,04,02,10,41,36.30
2010,04,02,10,42,29.30
2010,04,02,10,43,43.30
2010,04,02,10,44,36.70
2010,04,02,10,45,42.50
2010,04,02,10,46,44.10
2010,04,02,10,47,35.20
2010,04,02,10,48,44.40
2010,04,02,10,49,36.80
2010,04,02,10,50,45.50
2010,04,02,10,51,42.20
2010,04,02,10,52,28.80
2010,04,02,10,53,39.20
2010,04,02,10,54,39.50
2010,04,02,10,55,34.00
2010,04,02,10,56,29.10
2010,04,02,10,57,28.70
2010,04,02,10,58,36.90
2010,04,02,10,59,40.40
2010,04,02,11,00,38.40
2010,04,02,11,01,45.10
2010,04,02,11,02,38.30
2010,04,02,11,03,38.10
2010,04,02,11,04,37.40
2010,04,02,11,05,50.80
2010,04,02,11,06,46.70
2010,04,02,11,07,34.70
2010,04,02,11,08,45.70
2010,04,02,11,09,44.90
2010,04,02,11,10,41.70
2010,04,02,11,11,33.60
2010,04,02,11,12,28.60
2010,04,02,11,13,52.40
2010,04,02,11,14,43.60
2010,04,02,11,15,42.10
2010,04,02,11,16,40.80
2010,04,02,11,17,42.70
2010,04,02,11,18,34.10
2010,04,02,11,19,40.60
2010,04,02,11,20,35.00
2010,04,02,11,21,44.30
2010,04,02,11,22,35.80
2010,04,02,11,23,35.10
2010,04,02,11,24,44.80
2010,04,02,11,25,41.10
2010,04,02,11,26,36.60
2010,04,02,11,27,47.30
2010,04,02,11,28,46.30
2010,04,02,11,29,44.50
2010,04,02,11,30,52.80
2010,04,02,11,31,32.70
2010,04,02,11,32,31.40
2010,04,02,11,33,28.50
2010,04,02,11,34,45.60
2010,04,02,11,35,35.80
2010,04,02,11,36,24.60
2010,04,02,11,37,26.90
2010,04,02,11,38,32.50
2010,04,02,11,39,35.10
2010,04,02,11,40,35.00
2010,04,02,11,41,50.70
2010,04,02,11,42,33.60
2010,04,02,11,43,26.80
2010,04,02,11,44,35.90
2010,04,02,11,45,31.20
2010,04,02,11,46,33.50
2010,04,02,11,47,33.40
2010,04,02,11,48,46.40
2010,04,02,11,49,35.20
2010,04,02,11,50,34.80
2010,04,02,11,51,46.40
2010,04,02,11,52,33.30
2010,04,02,11,53,32.80
2010,04,02,11,54,36.50
2010,04,02,11,55,46.80
2010,04,02,11,56,31.60
2010,04,02,11,57,26.10
2010,04,02,11,58,37.80
2010,04,02,11,59,35.50
2010,04,02,12,00,39.90
2010,04,02,12,01,31.00
2010,04,02,12,02,27.80
2010,04,02,12,03,38.90
2010,04,02,12,04,40.80
2010,04,02,12,05,40.20
2010,04,02,12,06,45.70
2010,04,02,12,07,39.80
2010,04,02,12,08,39.30
2010,04,02,12,09,34.30
2010,04,02,12,10,30.80
2010,04,02,12,11,34.90
2010,04,02,12,12,43.90
2010,04,02,12,13,36.30
2010,04,02,12,14,36.90
2010,04,02,12,15,36.20
2010,04,02,12,16,33.60
2010,04,02,12,17,29.70
2010,04,02,12,18,35.10
2010,04,02,12,19,26.60
2010,04,02,12,20,34.30
2010,04,02,12,21,33.40
2010,04,02,12,22,38.50
2010,04,02,12,23,33.50
2010,04,02,12,24,36.30
2010,04,02,12,25,40.90
2010,04,02,12,26,32.20
2010,04,02,12,27,37.80
2010,04,02,12,28,34.30
2010,04,02,12,29,39.00
2010,04,02,12,30,30.40
2010,04,02,12,31,29.90
2010,04,02,12,32,22.80
2010,04,02,12,33,27.40
2010,04,02,12,34,34.70
2010,04,02,12,35,29.30
2010,04,02,12,36,31.70
2010,04,02,12,37,35.00
2010,04,02,12,38,27.20
2010,04,02,12,39,33.50
2010,04,02,12,40,32.60
2010,04,02,12,41,37.10
2010,04,02,12,42,26.80
2010,04,02,12,43,32.40
2010,04,02,12,44,29.00
2010,04,02,12,45,30.00
2010,04,02,12,46,22.00
2010,04,02,12,47,24.80
2010,04,02,12,48,17.30
2010,04,02,12,49,27.80
2010,04,02,12,50,31.00
2010,04,02,12,51,27.40
2010,04,02,12,52,16.60
2010,04,02,12,53,21.40
2010,04,02,12,54,26.50
2010,04,02,12,55,27.00
2010,04,02,12,56,29.00
2010,04,02,12,57,25.80
2010,04,02,12,58,18.60
2010,04,02,12,59,20.00
2010,04,02,13,00,30.10
2010,04,02,13,01,23.90
2010,04,02,13,02,33.40
2010,04,02,13,03,35.60
2010,04,02,13,04,36.70
2010,04,02,13,05,32.10
2010,04,02,13,06,29.90
2010,04,02,13,07,18.90
2010,04,02,13,08,23.00
2010,04,02,13,09,24.70
2010,04,02,13,10,28.50
2010,04,02,13,11,28.10
2010,04,02,13,12,32.70
2010,04,02,13,13,37.60
2010,04,02,13,14,27.90
2010,04,02,13,15,24.60
2010,04,02,13,16,29.00
2010,04,02,13,17,21.70
2010,04,02,13,18,19.50
2010,04,02,13,19,18.80
2010,04,02,13,20,21.40
2010,04,02,13,21,23.40
2010,04,02,13,22,26.00
2010,04,02,13,23,31.50
2010,04,02,13,24,30.40
2010,04,02,13,25,34.60
2010,04,02,13,26,33.40
2010,04,02,13,27,24.00
2010,04,02,13,28,31.60
2010,04,02,13,29,25.90
2010,04,02,13,30,20.80
2010,04,02,13,31,32.80
2010,04,02,13,32,22.80
2010,04,02,13,33,31.60
2010,04,02,13,34,27.10
2010,04,02,13,35,29.50
2010,04,02,13,36,33.20
2010,04,02,13,37,30.90
2010,04,02,13,38,33.90
2010,04,02,13,39,29.70
2010,04,02,13,40,21.20
2010,04,02,13,41,25.50
2010,04,02,13,42,35.90
2010,04,02,13,43,24.10
2010,04,02,13,44,20.50
2010,04,02,13,45,20.50
2010,04,02,13,46,16.40
2010,04,02,13,47,20.40
2010,04,02,13,48,22.90
2010,04,02,13,49,30.10
2010,04,02,13,50,33.90
2010,04,02,13,51,23.70
2010,04,02,13,52,20.20
2010,04,02,13,53,31.60
2010,04,02,13,54,24.90
2010,04,02,13,55,22.50
2010,04,02,13,56,22.20
2010,04,02,13,57,22.60
2010,04,02,13,58,19.80
2010,04,02,13,59,24.40
2010,04,02,14,00,21.70
2010,04,02,14,01,21.80
2010,04,02,14,02,27.30
2010,04,02,14,03,18.70
2010,04,02,14,04,28.30
2010,04,02,14,05,24.00
2010,04,02,14,06,24.20
2010,04,02,14,07,22.00
2010,04,02,14,08,23.50
2010,04,02,14,09,16.60
2010,04,02,14,10,25.30
2010,04,02,14,11,24.80
2010,04,02,14,12,27.50
2010,04,02,14,13,26.80
2010,04,02,14,14,24.90
2010,04,02,14,15,17.50
2010,04,02,14,16,21.70
2010,04,02,14,17,25.00
2010,04,02,14,18,17.60
2010,04,02,14,19,27.50
2010,04,02,14,20,20.70
2010,04,02,14,21,24.00
2010,04,02,14,22,29.50
2010,04,02,14,23,20.10
2010,04,02,14,24,24.90
2010,04,02,14,25,28.60
2010,04,02,14,26,22.40
2010,04,02,14,27,25.80
2010,04,02,14,28,20.30
2010,04,02,14,29,20.60
2010,04,02,14,30,17.50
2010,04,02,14,31,13.60
2010,04,02,14,32,10.80
2010,04,02,14,33,26.60
2010,04,02,14,34,21.80
2010,04,02,14,35,19.70
2010,04,02,14,36,17.30
2010,04,02,14,37,21.90
2010,04,02,14,38,20.50
2010,04,02,14,39,14.30
2010,04,02,14,40,19.90
2010,04,02,14,41,16.00
2010,04,02,14,42,17.60
2010,04,02,14,43,19.40
2010,04,02,14,44,17.30
2010,04,02,14,45,23.10
2010,04,02,14,46,22.60
2010,04,02,14,47,17.70
2010,04,02,14,48,13.70
2010,04,02,14,49,17.50
2010,04,02,14,50,14.50
2010,04,02,14,51,19.10
2010,04,02,14,52,19.50
2010,04,02,14,53,21.00
2010,04,02,14,54,16.20
2010,04,02,14,55,23.10
2010,04,02,14,56,15.60
2010,04,02,14,57,15.10
2010,04,02,14,58,12.70
2010,04,02,14,59,15.60
2010,04,02,15,00,14.20
2010,04,02,15,01,12.30
2010,04,02,15,02,20.10
2010,04,02,15,03,17.10
2010,04,02,15,04,23.90
2010,04,02,15,05,12.80
2010,04,02,15,06,19.60
2010,04,02,15,07,18.10
2010,04,02,15,08,22.50
2010,04,02,15,09,18.40
2010,04,02,15,10,10.50
2010,04,02,15,11,18.90
2010,04,02,15,12,18.80
2010,04,02,15,13,16.60
2010,04,02,15,14,15.60
2010,04,02,15,15,17.00
2010,04,02,15,16,14.50
2010,04,02,15,17,15.00
2010,04,02,15,18,17.90
2010,04,02,15,19,21.30
2010,04,02,15,20,15.10
2010,04,02,15,21,12.70
2010,04,02,15,22,19.00
2010,04,02,15,23,19.70
2010,04,02,15,24,21.60
2010,04,02,15,25,18.10
2010,04,02,15,26,22.40
2010,04,02,15,27,17.30
2010,04,02,15,28,19.70
2010,04,02,15,29,20.40
2010,04,02,15,30,19.50
2010,04,02,15,31,12.00
2010,04,02,15,32,21.50
2010,04,02,15,33,15.20
2010,04,02,15,34,17.80
2010,04,02,15,35,16.50
2010,04,02,15,36,8.20
2010,04,02,15,37,17.10
2010,04,02,15,38,20.00
2010,04,02,15,39,18.20
2010,04,02,15,40,18.50
2010,04,02,15,41,10.10
2010,04,02,15,42,20.40
2010,04,02,15,43,15.20
2010,04,02,15,44,17.30
2010,04,02,15,45,10.90
2010,04,02,15,46,20.30
2010,04,02,15,47,21.40
2010,04,02,15,48,15.80
2010,04,02,15,49,16.30
2010,04,02,15,50,10.00
2010,04,02,15,51,10.30
2010,04,02,15,52,7.30
2010,04,02,15,53,15.10
2010,04,02,15,54,11.70
2010,04,02,15,55,14.90
2010,04,02,15,56,14.00
2010,04,02,15,57,15.30
2010,04,02,15,58,12.30
2010,04,02,15,59,14.30
2010,04,02,16,00,9.90
2010,04,02,16,01,19.00
2010,04,02,16,02,19.00
2010,04,02,16,03,10.20
2010,04,02,16,04,17.30
2010,04,02,16,05,16.80
2010,04,02,16,06,16.30
2010,04,02,16,07,17.30
2010,04,02,16,08,17.60
2010,04,02,16,09,15.10
2010,04,02,16,10,11.60
2010,04,02,16,11,12.90
2010,04,02,16,12,17.50
2010,04,02,16,13,12.40
2010,04,02,16,14,15.60
2010,04,02,16,15,7.60
2010,04,02,16,16,11.10
2010,04,02,16,17,10.60
2010,04,02,16,18,12.80
2010,04,02,16,19,6.60
2010,04,02,16,20,13.10
2010,04,02,16,21,16.10
2010,04,02,16,22,8.20
2010,04,02,16,23,12.70
2010,04,02,16,24,18.10
2010,04,02,16,25,15.50
2010,04,02,16,26,13.20
2010,04,02,16,27,12.20
2010,04,02,16,28,11.10
2010,04,02,16,29,17.10
2010,04,02,16,30,15.10
2010,04,02,16,31,14.90
2010,04,02,16,32,17.50
2010,04,02,16,33,14.70
2010,04,02,16,34,10.70
2010,04,02,16,35,15.00
2010,04,02,16,36,15.50
2010,04,02,16,37,14.80
2010,04,02,16,38,18.90
2010,04,02,16,39,14.00
2010,04,02,16,40,13.80
2010,04,02,16,41,11.00
2010,04,02,16,42,15.90
2010,04,02,16,43,9.30
2010,04,02,16,44,11.00
2010,04,02,16,45,9.40
2010,04,02,16,46,11.40
2010,04,02,16,47,10.80
2010,04,02,16,48,12.40
2010,04,02,16,49,12.30
2010,04,02,16,50,13.00
2010,04,02,16,51,12.20
2010,04,02,16,52,14.90
2010,04,02,16,53,14.30
2010,04,02,16,54,15.20
2010,04,02,16,55,16.10
2010,04,02,16,56,11.30
2010,04,02,16,57,6.20
2010,04,02,16,58,8.60
2010,04,02,16,59,8.10
2010,04,02,17,00,9.50
2010,04,02,17,01,17.10
2010,04,02,17,02,12.20
2010,04,02,17,03,12.60
2010,04,02,17,04,18.20
2010,04,02,17,05,11.30
2010,04,02,17,06,17.10
2010,04,02,17,07,11.20
2010,04,02,17,08,11.80
2010,04,02,17,09,19.40
2010,04,02,17,10,14.20
2010,04,02,17,11,20.80
2010,04,02,17,12,13.10
2010,04,02,17,13,17.80
2010,04,02,17,14,13.10
2010,04,02,17,15,10.00
2010,04,02,17,16,10.40
2010,04,02,17,17,7.40
2010,04,02,17,18,5.90
2010,04,02,17,19,10.70
2010,04,02,17,20,23.30
2010,04,02,17,21,16.50
2010,04,02,17,22,15.20
2010,04,02,17,23,17.90